Simultaneous Nadir Overpasses (SNOs) Predictions

Prediction of SNOs between GOES-17 and METOP-B Satellite Orbit:

Table of predicted SNOs for the next 14.0 days since TLE Epoch: 3/19/2022
Index Date Time (GOES-17) GOES-17 Lat,Lon METOP-B Lat,Lon Distance(km) Time Diff (sec)
1 03/21/2022 06:40:34 -0.04,-137.20 -0.08,-137.26 8.07 80
2 03/23/2022 18:36:05 0.04,-137.20 -0.05,-136.84 41.41 80
3 03/25/2022 06:57:45 -0.04,-137.18 -0.96,-141.44 484.17 80
4 03/26/2022 06:34:24 -0.03,-137.17 0.13,-136.44 83.86 80
5 03/27/2022 18:53:15 0.03,-137.16 0.88,-141.00 437.22 80
6 03/28/2022 18:35:15 0.03,-137.15 -0.21,-136.00 130.79 80
7 03/30/2022 06:54:14 -0.03,-137.13 -0.79,-140.60 395.21 80
8 03/31/2022 06:30:54 -0.03,-137.12 0.30,-135.60 172.75 80
9 04/01/2022 18:49:45 0.03,-137.11 0.71,-140.17 348.61 80
